[[{"header":{"parameterUnit":"m.s-1","parameterCategory":1,"la1":30.2991,"la2":30.254,"lo1":-89.0895,"lo2":-89.0444,"dy":0.0017,"dx":0.0017,"nx":28,"ny":28,"refTime":"2024-09-03T09:00:00:Z","depth":0,"parameterNumber":2,"parameterNumberName":"U-component_of_WINDS"},"data":[0,0,0,0,0,0,0,0,0,0,0,0,0,0,0,0,0,0,0,0,0,0,0,0,0,0,0,0,0,0,0,0,0,0,0,0,0,0,0,0,0,0,0,0,0,0,0,0,0,0,0,0,0,0,0,0,0,0,-5.3615,-5.3616,0,-5.3696,-5.3697,-5.3698,-5.3543,-5.3537,-5.3532,-5.3528,-5.3614,-5.3621,-5.3628,0,0,0,0,0,0,0,0,0,0,0,0,0,-5.3331,-5.3337,-5.3615,-5.3616,-5.3617,-5.3696,-5.3697,-5.3698,-5.3544,-5.3537,-5.3531,-5.3525,-5.3612,-5.362,-5.3628,0,0,0,0,0,0,0,0,0,0,0,0,0,-5.3438,-5.3339,-5.3615,-5.355,-5.3544,-5.3696,-5.3697,-5.3698,-5.3545,-5.3537,-5.3529,-5.3522,-5.3609,-5.3619,-5.363,-5.3849,0,0,-5.3662,-5.3667,0,0,0,0,0,0,0,0,-5.3432,-5.3448,-5.3558,-5.3554,-5.3549,-5.3601,-5.3628,-5.3749,-5.3547,-5.3545,-5.3527,-5.3518,-5.3616,-5.3626,-5.3658,-5.3853,-5.3857,-5.3663,-5.3669,-5.3674,-5.3677,0,0,0,0,0,0,0,-5.3424,-5.3444,-5.3647,-5.356,-5.3554,-5.3517,-5.3524,-5.365,-5.3623,-5.3544,-5.3533,-5.3545,-5.3612,-5.3648,-5.3659,-5.3858,-5.3663,-5.3672,-5.3679,-5.3683,-5.4239,-5.4247,0,0,0,0,0,0,-5.3425,-5.3439,-5.3645,-5.365,-5.347,-5.3529,-5.3536,-5.3592,-5.3621,-5.3618,-5.3551,-5.3537,-5.3634,-5.3646,-5.3661,-5.3921,-5.3674,-5.3684,-5.369,-5.4231,-5.4241,-5.425,0,0,0,0,0,0,-5.3419,-5.3445,-5.3641,-5.3541,-5.3563,-5.3542,-5.3606,-5.3598,-5.3633,-5.3626,-5.3621,-5.3593,-5.3628,-5.3646,-5.3804,-5.3922,-5.3689,-5.3698,-5.4221,-5.4234,-5.4246,-5.4443,0,0,0,0,0,0,-5.3412,-5.3444,-5.3526,-5.3544,-5.3569,-5.3782,-5.3613,-5.3605,-5.3652,-5.3634,-5.3664,-5.3661,-5.3623,-5.3789,-5.3814,-5.3932,-5.3707,-5.421,-5.4227,-5.4242,-5.4426,-5.4461,-5.449,0,0,0,0,0,-5.3402,-5.3579,-5.3531,-5.3557,-5.3672,-5.3789,-5.3804,-5.3756,-5.3662,-5.3745,-5.3741,-5.366,-5.3905,-5.3806,-5.3834,-5.3957,-5.4203,-5.4222,-5.4241,-5.4411,-5.4454,-5.449,0,0,0,0,0,0,-5.3576,-5.358,-5.3527,-5.3715,-5.3753,-5.3763,-5.3866,-5.3802,-5.3868,-5.3849,-5.3788,-5.3796,-5.3966,-5.3977,-5.3867,-5.4171,-5.4038,-5.4064,-5.4158,-5.4199,-5.4231,-5.4225,-5.3715,0,0,0,0,0,-5.3636,-5.373,-5.3729,-5.3895,-5.3916,-5.3889,-5.3938,-5.3897,-5.3935,-5.3951,-5.3957,-5.3998,-5.4083,-5.4141,-5.422,-5.4426,-5.4431,-5.4524,-5.4557,-5.4583,-5.4607,-5.4718,-5.4759,-5.4313,-5.4312,-5.4312,0,0,-5.3762,-5.3775,-5.3839,-5.393,-5.3954,-5.4055,-5.3903,-5.4015,-5.4089,-5.3968,-5.4117,-5.4124,-5.4165,-5.4348,-5.4429,-5.4362,-5.4731,-5.4608,-5.4629,-5.4637,-5.4741,-5.4784,-5.4821,-5.4325,-5.4323,-5.4321,0,0,-5.4041,-5.4061,-5.4201,-5.4229,-5.4268,-5.4248,-5.4283,-5.4303,-5.4302,-5.445,-5.4362,-5.445,-5.4598,-5.4632,-5.4668,-5.4962,-5.4891,-5.4989,-5.5159,-5.5268,-5.5303,-5.5334,-5.544,-5.5478,-5.5012,-5.5012,-5.5012,0,-5.4192,-5.4338,-5.4282,-5.44,-5.4443,-5.4337,-5.448,-5.451,-5.4574,-5.4607,-5.4531,-5.4716,-5.4736,-5.4926,-5.4998,-5.503,-5.5068,-5.4986,-5.5302,-5.5333,-5.5361,-5.5461,-5.5501,-5.5024,-5.5023,-5.5021,-5.502,0,-5.4523,-5.4626,-5.4735,-5.4798,-5.4853,-5.4983,-5.4948,-5.5011,-5.4966,-5.4955,-5.5109,-5.5129,-5.521,-5.5252,-5.521,-5.5437,-5.5395,-5.5312,-5.5177,-5.5416,-5.5509,-5.5547,-5.5041,-5.5037,-5.5033,-5.503,0,0,-5.4915,-5.4945,-5.4986,-5.5013,-5.5049,-5.5128,-5.5254,-5.5332,-5.5389,-5.5436,-5.5541,-5.567,-5.5593,-5.5635,-5.5595,-5.5691,-5.5924,-5.5596,-5.5596,-5.5657,-5.6177,-5.624,-5.6285,-5.5876,-5.5883,-5.5889,-5.6174,0,-5.5192,-5.5408,-5.5361,-5.5574,-5.5668,-5.5569,-5.5679,-5.5714,-5.5708,-5.5788,-5.5781,-5.5873,-5.5765,-5.5789,-5.5879,-5.5876,-5.6027,-5.5855,-5.5975,-5.598,-5.5969,-5.6334,-5.6401,-5.6668,-5.621,-5.6216,-5.622,0,-5.5545,-5.5606,-5.5828,-5.5849,-5.5887,-5.5986,-5.6055,-5.6133,-5.617,-5.6159,-5.6206,-5.6148,-5.6275,-5.6138,-5.6312,-5.6196,-5.6242,-5.6249,-5.6258,-5.6268,-5.6116,-5.6355,-5.6752,-5.6793,-5.6277,-5.6273,-5.6269,0,-5.581,-5.5947,-5.6097,-5.6124,-5.6152,-5.6225,-5.624,-5.627,-5.632,-5.6381,-5.6413,-5.6488,-5.653,-5.659,-5.6555,-5.6458,-5.6736,-5.6596,-5.6731,-5.6733,-5.6795,-5.6792,-5.7207,-5.6824,-5.6823,-5.6823,-5.6822,0,-5.6126,-5.6266,-5.6217,-5.631,-5.6464,-5.6409,-5.6564,-5.6568,-5.6596,-5.6689,-5.6608,-5.6697,-5.6644,-5.673,-5.6703,-5.6853,-5.6872,-5.6867,-5.6859,-5.6875,-5.6876,-5.6905,-5.6886,-5.6833,-5.6831,-5.6829,-5.6827,0,-5.6448,-5.6421,-5.6578,-5.6592,-5.6599,-5.6712,-5.6724,-5.6811,-5.6798,-5.6917,-5.6942,-5.6923,-5.702,-5.699,-5.7095,-5.7077,-5.7266,-5.7233,-5.7254,-5.7246,-5.7383,-5.7371,-5.7833,-5.7891,-5.747,-5.7474,-5.7477,0,-5.6652,-5.6757,-5.6782,-5.6838,-5.6859,-5.695,-5.7001,-5.6952,-5.7008,-5.706,-5.7142,-5.7231,-5.7299,-5.7459,-5.7455,-5.7535,-5.7504,-5.7661,-5.7516,-5.753,-5.7508,-5.7503,-5.7514,-5.769,-5.7695,-5.7699,-5.7702,0,-5.7017,-5.6998,-5.7074,-5.7146,-5.7209,-5.7264,-5.7311,-5.7362,-5.7316,-5.7384,-5.7481,-5.7535,-5.7641,-5.7732,-5.7804,-5.7821,-5.7756,-5.7747,-5.7783,-5.7801,-5.7809,-5.7808,-5.7333,-5.7737,-5.7734,-5.7731,-5.7729,-5.7728,-5.7286,-5.7376,-5.7407,-5.7495,-5.7525,-5.7572,-5.7654,-5.7652,-5.7732,-5.7814,-5.778,-5.7893,-5.7929,-5.802,-5.8047,-5.8135,-5.8075,-5.8127,-5.814,-5.8154,-5.8172,-5.7795,-5.8148,-5.8147,-5.8146,-5.8145,-5.8144,0,-5.7648,-5.7663,-5.7744,-5.7813,-5.7883,-5.7813,-5.7862,-5.7925,-5.8025,-5.8063,-5.8133,-5.8246,-5.8333,-5.8337,-5.8419,-5.8489,-5.8461,-5.8512,-5.8507,-5.8512,-5.822,-5.8181,-5.8534,-5.8534,-5.8533,-5.8533,-5.8533,-5.8533,-5.7844,-5.7992,-5.7977,-5.814,-5.8154,-5.8263,-5.8297,-5.834,-5.8371,-5.85,-5.8572,-5.8573,-5.8598,-5.8681,-5.8759,-5.8758,-5.8793,-5.8856,-5.8844,-5.8571,-5.8533,-5.8496,-5.8459,-5.8864,-5.8864,-5.9129,-5.9131,-5.9133]},{"header":{"parameterUnit":"m.s-1","parameterCategory":1,"la1":30.2991,"la2":30.254,"lo1":-89.0895,"lo2":-89.0444,"dy":0.0017,"dx":0.0017,"nx":28,"ny":28,"refTime":"2024-09-03T09:00:00:Z","depth":0,"parameterNumber":3,"parameterNumberName":"V-component_of_WINDS"},"data":[0,0,0,0,0,0,0,0,0,0,0,0,0,0,0,0,0,0,0,0,0,0,0,0,0,0,0,0,0,0,0,0,0,0,0,0,0,0,0,0,0,0,0,0,0,0,0,0,0,0,0,0,0,0,0,0,0,0,-2.1399,-2.1398,0,-2.1298,-2.1296,-2.1295,-2.123,-2.123,-2.123,-2.1229,-2.1119,-2.1117,-2.1114,0,0,0,0,0,0,0,0,0,0,0,0,0,-2.1528,-2.1526,-2.1399,-2.1398,-2.1396,-2.1298,-2.1296,-2.1295,-2.123,-2.123,-2.1229,-2.1229,-2.112,-2.1117,-2.1114,0,0,0,0,0,0,0,0,0,0,0,0,0,-2.1454,-2.1525,-2.1399,-2.1352,-2.1347,-2.1298,-2.1296,-2.1295,-2.123,-2.123,-2.1229,-2.1229,-2.1121,-2.1117,-2.1113,-2.1101,0,0,-2.1102,-2.11,0,0,0,0,0,0,0,0,-2.1458,-2.1449,-2.136,-2.1355,-2.135,-2.1276,-2.1301,-2.1229,-2.1231,-2.1275,-2.1229,-2.1228,-2.1171,-2.1163,-2.1145,-2.1096,-2.1091,-2.1101,-2.1099,-2.1097,-2.1096,0,0,0,0,0,0,0,-2.1463,-2.1453,-2.1359,-2.1359,-2.1353,-2.1334,-2.1323,-2.1287,-2.1227,-2.1271,-2.1266,-2.1255,-2.1168,-2.1149,-2.1142,-2.1089,-2.1101,-2.1098,-2.1096,-2.1094,-2.102,-2.102,0,0,0,0,0,0,-2.1477,-2.1458,-2.1362,-2.1356,-2.1404,-2.1332,-2.1319,-2.13,-2.1227,-2.1216,-2.1256,-2.1252,-2.1156,-2.1147,-2.1138,-2.1116,-2.1097,-2.1094,-2.1091,-2.1019,-2.102,-2.102,0,0,0,0,0,0,-2.148,-2.1469,-2.1366,-2.1405,-2.1391,-2.133,-2.1309,-2.1298,-2.128,-2.1216,-2.1204,-2.1248,-2.1155,-2.1144,-2.111,-2.1112,-2.1092,-2.1088,-2.1019,-2.1019,-2.102,-2.1074,0,0,0,0,0,0,-2.1484,-2.147,-2.1467,-2.1406,-2.1389,-2.1342,-2.1309,-2.1297,-2.1274,-2.1269,-2.1206,-2.1195,-2.1154,-2.1116,-2.1106,-2.1106,-2.1085,-2.1018,-2.1019,-2.102,-2.1072,-2.1076,-2.108,0,0,0,0,0,-2.1489,-2.1486,-2.1467,-2.1456,-2.1384,-2.1343,-2.1333,-2.1288,-2.1274,-2.1269,-2.1227,-2.1197,-2.1113,-2.1113,-2.1102,-2.11,-2.1018,-2.1019,-2.102,-2.107,-2.1076,-2.108,0,0,0,0,0,0,-2.1548,-2.1477,-2.1456,-2.1434,-2.1395,-2.1332,-2.1324,-2.1296,-2.1258,-2.1255,-2.1198,-2.1185,-2.1156,-2.1124,-2.1126,-2.1082,-2.1062,-2.106,-2.1104,-2.1109,-2.1113,-2.1121,-2.1082,0,0,0,0,0,-2.1559,-2.1533,-2.1472,-2.1458,-2.144,-2.1386,-2.1366,-2.1334,-2.1291,-2.1274,-2.123,-2.1187,-2.115,-2.1128,-2.1091,-2.1067,-2.105,-2.1059,-2.1064,-2.1067,-2.1066,-2.1047,-2.105,-2.1022,-2.1022,-2.1022,0,0,-2.158,-2.1538,-2.1526,-2.1469,-2.1435,-2.1407,-2.1372,-2.1345,-2.1323,-2.1269,-2.1235,-2.1201,-2.1148,-2.1119,-2.1103,-2.1092,-2.107,-2.1068,-2.1072,-2.1069,-2.1049,-2.1051,-2.1054,-2.1023,-2.1023,-2.1023,0,0,-2.1605,-2.1572,-2.1556,-2.1522,-2.1472,-2.1435,-2.1431,-2.1372,-2.1348,-2.1313,-2.1271,-2.1242,-2.1182,-2.1145,-2.1119,-2.1126,-2.1095,-2.1116,-2.1137,-2.112,-2.1122,-2.1123,-2.1124,-2.1125,-2.1115,-2.1115,-2.1115,0,-2.1637,-2.1596,-2.155,-2.1525,-2.15,-2.1451,-2.1432,-2.1401,-2.134,-2.1323,-2.131,-2.1231,-2.1193,-2.1153,-2.1154,-2.1135,-2.1126,-2.1123,-2.1126,-2.1127,-2.1128,-2.1127,-2.1128,-2.1118,-2.1118,-2.1117,-2.1117,0,-2.1637,-2.1609,-2.1602,-2.1546,-2.1519,-2.1498,-2.1445,-2.1423,-2.1393,-2.1357,-2.132,-2.1272,-2.1223,-2.1211,-2.1181,-2.1165,-2.1159,-2.1137,-2.1115,-2.1134,-2.1132,-2.1132,-2.1122,-2.1121,-2.112,-2.1119,0,0,-2.1698,-2.1616,-2.1613,-2.1586,-2.1526,-2.1502,-2.1475,-2.1429,-2.1411,-2.1369,-2.1344,-2.1292,-2.1271,-2.1241,-2.1206,-2.1191,-2.1196,-2.117,-2.1168,-2.1175,-2.1172,-2.1188,-2.1189,-2.1175,-2.1175,-2.1175,-2.1176,0,-2.1712,-2.1666,-2.1623,-2.1591,-2.1562,-2.1514,-2.149,-2.1449,-2.1413,-2.1381,-2.1341,-2.1304,-2.128,-2.1261,-2.1244,-2.12,-2.1195,-2.1199,-2.1148,-2.1147,-2.1163,-2.1189,-2.1206,-2.121,-2.1175,-2.1175,-2.1175,0,-2.1724,-2.1686,-2.1652,-2.1592,-2.1578,-2.1559,-2.1511,-2.1482,-2.1432,-2.1407,-2.1373,-2.1336,-2.1302,-2.1284,-2.1234,-2.1238,-2.1214,-2.1189,-2.1187,-2.118,-2.1162,-2.1181,-2.121,-2.121,-2.1174,-2.1174,-2.1174,0,-2.1769,-2.1709,-2.168,-2.1659,-2.1589,-2.1575,-2.1545,-2.1495,-2.1469,-2.1426,-2.1408,-2.1361,-2.1335,-2.1298,-2.1248,-2.124,-2.1203,-2.1181,-2.1178,-2.1179,-2.1172,-2.1173,-2.1197,-2.1159,-2.1159,-2.1159,-2.1159,0,-2.1789,-2.177,-2.17,-2.1682,-2.1657,-2.1605,-2.1581,-2.1546,-2.1501,-2.1473,-2.1427,-2.1401,-2.1337,-2.1302,-2.1262,-2.1226,-2.1214,-2.1191,-2.118,-2.1194,-2.1197,-2.1177,-2.1175,-2.1159,-2.1159,-2.1159,-2.1159,0,-2.1836,-2.1788,-2.1753,-2.169,-2.1673,-2.1657,-2.1601,-2.1579,-2.1541,-2.1505,-2.1494,-2.1432,-2.1388,-2.1334,-2.1273,-2.1245,-2.1212,-2.1197,-2.123,-2.1224,-2.1223,-2.1223,-2.1234,-2.1231,-2.1197,-2.1197,-2.1198,0,-2.1851,-2.1835,-2.177,-2.1749,-2.172,-2.1687,-2.166,-2.1607,-2.158,-2.1521,-2.1506,-2.1459,-2.1419,-2.135,-2.1297,-2.1249,-2.1231,-2.1238,-2.1223,-2.1237,-2.1229,-2.123,-2.1227,-2.1242,-2.1242,-2.1243,-2.1243,0,-2.1883,-2.186,-2.1825,-2.1781,-2.1751,-2.1713,-2.1673,-2.1658,-2.1595,-2.1567,-2.1523,-2.1492,-2.1429,-2.1381,-2.1326,-2.129,-2.1255,-2.1248,-2.1245,-2.1259,-2.1278,-2.1266,-2.1239,-2.1248,-2.1248,-2.1248,-2.1247,-2.1247,-2.1913,-2.1896,-2.1847,-2.1808,-2.1773,-2.1736,-2.1712,-2.167,-2.1633,-2.158,-2.1549,-2.1505,-2.1451,-2.1374,-2.1339,-2.1301,-2.1289,-2.1284,-2.1282,-2.1282,-2.1285,-2.1285,-2.1291,-2.129,-2.129,-2.129,-2.129,0,-2.1941,-2.1907,-2.1872,-2.1818,-2.1787,-2.1759,-2.1712,-2.1687,-2.165,-2.1604,-2.1565,-2.1512,-2.1465,-2.1408,-2.1357,-2.1337,-2.1319,-2.1325,-2.1325,-2.1317,-2.13,-2.1308,-2.134,-2.134,-2.134,-2.134,-2.134,-2.134,-2.1953,-2.1921,-2.1892,-2.184,-2.1805,-2.1763,-2.1739,-2.1703,-2.1666,-2.161,-2.1571,-2.1535,-2.1484,-2.1427,-2.1382,-2.1365,-2.1348,-2.1358,-2.1337,-2.1323,-2.1318,-2.1314,-2.1321,-2.1355,-2.1355,-2.1356,-2.1356,-2.1356]}]]